This is the latest recevied weather packets stored in our database for station/object W4BOD. If no packets are shown the sender has not sent any weather packets the latest 10 day(s).
| Time | Temp. | Humidity | Pressure | Rain* | Wind** | Luminosity | Snow |
|---|---|---|---|---|---|---|---|
| 1777759435 | 16.67° C | 50% | 1016.1 hPa | 0 mm | - | 119 W/m² | - |
| 1777759132 | 16.67° C | 48% | 1015.9 hPa | 0 mm | - | 89 W/m² | - |
| 1777758830 | 17.22° C | 48% | 1015.6 hPa | 0 mm | - | 149 W/m² | - |
| 1777758526 | 17.22° C | 46% | 1015.5 hPa | 0 mm | - | 153 W/m² | - |
| 1777758223 | 17.78° C | 45% | 1015.5 hPa | 0 mm | - | 174 W/m² | - |
| 1777757920 | 17.78° C | 47% | 1015.2 hPa | 0 mm | - | 150 W/m² | - |
| 1777757617 | 18.33° C | 45% | 1015 hPa | 0 mm | - | 196 W/m² | - |
| 1777757316 | 17.78° C | 46% | 1015.2 hPa | 0 mm | - | 214 W/m² | - |
| 1777757014 | 17.78° C | 47% | 1015.2 hPa | 0 mm | - | 193 W/m² | - |
| 1777756711 | 17.78° C | 46% | 1015.2 hPa | 0 mm | - | 230 W/m² | - |
| 1777756406 | 17.22° C | 45% | 1015 hPa | 0 mm | - | 267 W/m² | - |
| 1777756104 | 17.78° C | 45% | 1015.3 hPa | 0 mm | - | 182 W/m² | - |
| 1777755801 | 17.78° C | 48% | 1015.2 hPa | 0 mm | - | 265 W/m² | - |
| 1777755498 | 17.78° C | 47% | 1015.2 hPa | 0 mm | - | 199 W/m² | - |
| 1777755194 | 17.78° C | 48% | 1015.4 hPa | 0 mm | - | 213 W/m² | - |
| 1777754891 | 17.78° C | 47% | 1015.3 hPa | 0 mm | - | 193 W/m² | - |
| 1777754588 | 18.89° C | 47% | 1015.2 hPa | 0 mm | - | 269 W/m² | - |
| 1777754286 | 19.44° C | 41% | 1015.4 hPa | 0 mm | - | 554 W/m² | - |
| 1777753984 | 19.44° C | 42% | 1015.5 hPa | 0 mm | - | 671 W/m² | - |
| 1777753683 | 19.44° C | 44% | 1015.4 hPa | 0 mm | - | 653 W/m² | - |
| 1777753381 | 17.78° C | 48% | 1015.5 hPa | 0 mm | - | 764 W/m² | - |
| 1777753079 | 17.78° C | 47% | 1015.5 hPa | 0 mm | - | 320 W/m² | - |
| 1777752775 | 17.78° C | 45% | 1015.6 hPa | 0 mm | - | 286 W/m² | - |
| 1777752471 | 18.33° C | 43% | 1015.6 hPa | 0 mm | - | 199 W/m² | - |
| 1777752167 | 18.33° C | 45% | 1015.8 hPa | 0 mm | - | 204 W/m² | - |
* Rain latest hour (hover to see other rain measurements)
** Current wind speed in m/s (hover to see current wind gust speed)